Zurück zum Katalog

STARLINK-32944

AktivKommunikationVLEO
NORAD 63022·PAYLOAD·🇺🇸 United States

Gestartet Feb 15, 2025 von Cape Canaveral Space Force Station

Loading…

Nächste Überflüge (nächste 24 Stunden)

TLE

AktuellSource: CelesTrak SupGP

Epoche: Sep 14, 2026, 22:44 UTC

1 63022C 25032T   26257.94770833 -.00023101  00000+0 -83670-3 0  2570
2 63022  43.0037 347.6382 0001538 268.1578 312.5179 15.27589983    15

Verfolge STARLINK-32944 in Echtzeit mit AllMySat

Download on the App Store